Wind_Speed
40 41 42 43 43 44 45 45 46 45 44 45 47 48 50 52 53 53 54 55 56 57 58 58 59 59 60 61 62 62 63 63 63 63 63 63 63 63
41 42 43 44 44 46 46 47 48 48 47 47 49 50 52 53 54 55 56 57 57 58 59 59 60 61 62 63 63 63 64 64 64 64 64 64 64 64
42 43 44 45 46 47 47 48 49 49 49 49 51 52 54 55 56 57 57 58 58 59 60 61 62 63 63 64 64 65 65 65 64 64 64 64 64 64
43 44 45 46 47 47 48 48 49 50 51 51 52 54 55 56 57 58 58 59 59 60 62 63 63 64 65 65 65 65 65 64 63 64 63 63 63 62
44 45 46 47 48 48 48 49 50 51 52 53 53 54 55 57 58 58 59 60 60 61 62 63 64 65 65 65 65 64 63 63 63 62 61 59 58 57
45 46 47 48 48 48 49 50 51 52 53 54 54 55 56 58 59 59 60 61 61 62 63 63 65 65 65 65 64 63 62 62 61 58 56 55 53 52
46 46 48 49 49 50 50 51 52 53 54 55 56 57 58 59 60 60 61 61 61 63 63 64 65 66 65 64 63 62 61 60 58 55 54 52 51 50
47 47 48 49 50 50 51 52 52 53 54 56 57 58 59 60 61 61 61 61 62 63 64 65 66 65 64 63 62 61 60 57 55 53 51 50 48 47
48 48 49 49 50 50 51 52 53 54 56 57 58 59 60 61 61 62 62 63 63 64 65 65 66 65 63 62 60 59 57 54 52 50 48 47 45 44
48 49 49 49 50 50 51 53 54 55 57 58 60 60 61 61 61 62 63 64 64 65 66 65 63 62 60 59 57 55 52 50 48 47 46 44 43 42
49 49 50 50 50 51 52 54 54 56 57 59 60 61 61 61 62 63 64 65 64 65 65 63 60 57 56 54 52 50 48 46 45 44 43 41 39 38
49 49 49 50 51 52 53 54 55 57 58 59 60 60 60 62 62 63 64 64 64 63 62 60 57 54 51 50 49 47 44 42 41 40 38 36 35 34
48 49 49 50 51 52 53 54 56 57 58 58 59 59 60 61 62 62 62 62 62 61 59 56 53 51 49 46 44 42 40 38 37 36 34 33 32 31
49 49 50 51 51 52 53 55 56 57 58 58 58 59 60 61 61 62 62 62 60 58 55 53 50 47 45 42 39 37 36 35 33 31 30 29 28 27
48 49 50 50 51 52 54 55 56 57 57 58 58 59 60 60 61 61 60 59 57 55 52 49 46 43 41 38 35 34 33 31 30 28 27 26 25 24
48 49 50 51 51 52 53 55 56 57 57 58 58 59 59 59 59 58 57 55 53 51 49 46 43 41 38 36 34 32 30 28 27 26 26 25 24 22
48 48 49 50 50 52 53 55 56 56 57 57 57 58 58 57 56 55 53 51 49 47 45 43 42 39 36 34 32 30 28 27 26 25 24 23 22 20
48 49 49 50 51 52 53 55 56 56 56 56 56 56 55 54 53 52 50 48 46 44 41 39 38 37 35 32 30 28 27 26 25 23 22 21 20 19
48 48 49 50 51 52 54 54 54 55 55 55 54 54 52 51 50 49 48 46 44 41 39 37 36 34 31 30 28 26 25 24 23 22 21 20 18 18
48 49 49 50 51 52 53 53 53 53 53 53 52 51 50 49 48 47 46 44 41 39 37 36 34 31 29 27 25 24 23 22 22 20 19 18 17 16
47 48 49 49 50 51 52 52 52 52 52 51 50 49 48 47 47 46 44 41 39 36 35 34 31 29 27 25 23 22 22 21 20 18 16 15 14 14
47 47 48 49 50 50 51 51 51 51 50 49 48 47 47 46 45 44 41 39 36 34 32 30 28 26 24 22 21 20 20 19 18 16 14 13 12 12
46 47 47 48 49 50 51 51 50 49 48 47 46 46 45 45 43 41 39 36 34 32 29 27 25 24 22 20 19 18 17 16 15 14 13 12 11 10
Wind_Direction
290 292 293 294 295 296 297 298 299 299 300 301 300 300 300 301 302 302 302 302 301 301 301 300 300 299 298 297 296 294 293 291 290 289 287 286 284 283
291 292 293 294 296 296 297 298 299 300 300 301 300 301 301 301 302 302 302 302 302 302 301 301 300 300 299 298 297 295 294 292 290 288 287 286 285 283
291 292 293 295 296 297 297 298 299 300 300 301 302 301 301 302 303 303 303 302 302 302 302 302 301 301 300 299 298 296 294 293 291 289 288 286 285 283
291 293 294 295 296 297 298 298 299 300 301 302 302 302 302 303 303 303 303 303 303 303 302 302 301 301 300 299 298 297 296 294 292 291 289 287 286 284
292 293 294 295 296 297 298 299 300 301 302 303 303 303 304 304 304 305 304 304 304 304 304 303 302 301 300 299 299 298 297 295 294 292 290 288 286 284
291 293 294 295 296 297 298 299 301 302 302 303 304 304 305 305 305 306 305 305 305 305 305 304 303 302 301 300 299 298 297 296 295 293 291 289 288 286
291 293 294 296 296 297 298 300 301 302 303 304 304 305 305 306 306 306 306 305 305 306 305 304 303 302 301 300 299 298 297 297 295 293 292 290 288 286
292 293 294 295 297 298 299 301 302 303 304 305 305 306 306 307 307 307 306 306 305 306 305 305 304 303 302 301 300 299 298 297 294 293 292 290 289 286
292 293 294 295 297 299 300 301 302 303 304 305 306 307 307 307 307 307 307 307 307 307 306 306 305 304 302 302 301 301 299 297 295 293 292 291 288 286
292 294 295 296 297 298 300 301 303 304 305 307 307 308 308 308 308 308 308 308 308 307 307 307 306 305 304 303 303 302 300 298 295 294 293 291 288 286
292 294 295 296 298 299 300 302 304 305 306 307 307 308 308 308 308 309 309 309 309 309 308 308 307 306 306 305 304 304 301 299 297 296 295 293 290 288
291 293 295 296 298 299 301 302 304 306 307 307 308 308 308 309 310 310 311 310 310 310 310 309 308 307 307 306 305 304 303 302 301 299 297 295 292 289
291 293 295 297 298 300 301 303 305 306 307 308 308 309 309 310 311 311 311 311 312 312 311 310 309 309 309 308 307 305 304 303 303 302 299 297 294 291
292 294 295 297 299 301 302 304 306 307 308 309 309 310 310 311 312 312 312 312 313 313 312 312 311 310 310 309 308 307 306 306 305 303 302 301 298 295
292 294 296 298 300 301 303 305 307 308 309 309 310 310 311 311 312 312 312 313 313 313 313 313 312 311 311 310 309 308 308 308 307 305 304 303 301 297
293 295 296 298 300 302 304 306 307 308 309 310 310 311 311 312 312 313 313 313 313 313 314 314 313 312 311 310 310 310 309 308 307 307 305 304 301 298
293 295 297 299 301 302 304 306 307 308 309 310 311 311 312 312 313 314 314 314 314 314 314 314 313 312 311 310 310 310 309 308 307 307 306 304 302 298
294 296 297 299 301 303 305 306 307 308 309 310 311 312 312 313 314 315 315 315 314 314 314 313 313 312 311 310 310 308 307 308 308 307 306 304 301 298
294 296 298 300 302 304 306 307 307 308 309 310 311 312 313 314 314 315 315 315 314 314 314 313 313 312 310 309 309 308 308 308 308 308 307 304 300 297
295 297 299 300 302 304 305 307 308 308 309 310 310 312 313 314 315 316 315 315 314 313 313 313 313 312 311 309 308 308 310 311 310 308 306 305 303 302
296 297 299 300 302 304 305 307 307 308 309 309 310 311 313 314 315 315 315 314 313 312 312 313 313 312 311 311 310 310 311 312 311 309 308 306 304 302
296 297 299 301 302 304 305 306 307 308 308 308 309 311 312 313 314 314 314 313 312 312 312 313 313 313 312 312 311 311 313 314 314 313 311 309 307 304
296 298 299 301 303 304 305 305 306 307 308 308 309 311 312 313 313 313 313 312 311 311 311 312 313 313 313 313 313 313 315 316 316 315 314 312 312 311
Height
5708 5705 5701 5697 5692 5688 5683 5679 5675 5671 5668 5662 5655 5648 5641 5635 5629 5623 5617 5610 5603 5597 5591 5584 5578 5572 5566 5559 5553 5547 5542 5536 5531 5526 5522 5518 5514 5510
5698 5695 5691 5687 5682 5677 5673 5668 5663 5658 5655 5651 5643 5637 5630 5623 5617 5610 5603 5597 5590 5583 5576 5569 5562 5556 5549 5542 5536 5529 5523 5517 5512 5507 5502 5498 5494 5490
5688 5684 5680 5676 5672 5667 5662 5657 5651 5646 5642 5638 5631 5624 5617 5611 5604 5596 5589 5582 5575 5568 5560 5553 5546 5539 5532 5525 5518 5510 5504 5498 5492 5487 5482 5477 5473 5469
5678 5674 5670 5665 5661 5656 5651 5645 5640 5634 5629 5625 5619 5611 5604 5597 5590 5583 5575 5568 5561 5553 5545 5537 5530 5522 5514 5507 5499 5492 5485 5478 5472 5466 5461 5457 5452 5448
5667 5663 5659 5654 5650 5644 5639 5634 5628 5622 5616 5610 5605 5598 5591 5584 5576 5569 5561 5553 5545 5537 5529 5521 5513 5505 5497 5488 5480 5473 5466 5459 5453 5447 5441 5436 5432 5428
5656 5652 5647 5643 5638 5633 5627 5622 5616 5610 5603 5597 5591 5585 5578 5570 5562 5555 5547 5539 5530 5522 5513 5504 5496 5487 5479 5470 5462 5455 5447 5441 5434 5428 5422 5418 5414 5411
5644 5640 5636 5631 5626 5620 5615 5609 5603 5597 5591 5584 5577 5571 5564 5556 5548 5540 5532 5524 5516 5506 5497 5488 5479 5470 5461 5452 5444 5437 5430 5423 5416 5410 5406 5401 5398 5394
5633 5628 5624 5619 5614 5608 5602 5596 5590 5584 5578 5571 5564 5556 5549 5541 5533 5524 5516 5509 5501 5493 5482 5472 5462 5452 5443 5435 5427 5419 5412 5405 5399 5394 5390 5385 5382 5379
5621 5616 5612 5607 5601 5596 5590 5584 5578 5571 5564 5557 5550 5542 5534 5526 5518 5509 5500 5491 5483 5473 5464 5456 5445 5435 5425 5417 5410 5403 5395 5389 5384 5379 5374 5370 5367 5364
5608 5604 5600 5595 5589 5583 5578 5572 5565 5558 5551 5543 5536 5527 5519 5510 5501 5493 5484 5475 5466 5455 5445 5437 5428 5418 5409 5401 5393 5386 5380 5374 5369 5364 5360 5356 5353 5350
5596 5592 5587 5582 5577 5571 5565 5559 5552 5545 5537 5529 5521 5512 5503 5494 5486 5477 5468 5458 5450 5440 5428 5419 5412 5403 5395 5386 5378 5371 5365 5360 5355 5350 5346 5342 5339 5337
5584 5579 5574 5569 5564 5557 5552 5545 5539 5531 5524 5515 5506 5498 5489 5480 5470 5461 5452 5442 5433 5424 5414 5405 5396 5388 5382 5374 5366 5359 5353 5347 5343 5338 5334 5330 5327 5325
5571 5566 5561 5556 5550 5544 5538 5532 5525 5517 5510 5501 5493 5484 5475 5466 5456 5446 5437 5427 5418 5409 5400 5391 5383 5375 5368 5362 5355 5348 5342 5337 5332 5328 5324 5320 5317 5315
5558 5553 5548 5543 5537 5531 5525 5518 5511 5503 5496 5488 5479 5471 5462 5452 5443 5433 5423 5413 5404 5395 5386 5378 5371 5364 5357 5351 5345 5339 5333 5328 5324 5319 5315 5312 5308 5306
5545 5540 5535 5530 5524 5518 5511 5505 5497 5490 5482 5474 5466 5457 5448 5439 5429 5419 5410 5400 5391 5382 5375 5367 5360 5353 5347 5341 5336 5331 5326 5321 5316 5312 5308 5305 5302 5299
5532 5527 5522 5516 5511 5505 5498 5491 5484 5476 5469 5461 5452 5444 5434 5425 5416 5407 5398 5389 5380 5371 5364 5357 5350 5344 5338 5333 5328 5323 5318 5314 5310 5306 5302 5299 5296 5293
5518 5514 5509 5504 5498 5492 5485 5478 5470 5463 5455 5447 5439 5430 5421 5412 5403 5395 5386 5378 5370 5363 5355 5348 5341 5335 5330 5325 5320 5315 5311 5307 5303 5300 5296 5293 5290 5288
5505 5500 5496 5490 5485 5479 5472 5465 5457 5450 5442 5434 5426 5418 5409 5400 5392 5384 5376 5368 5361 5353 5347 5340 5334 5328 5323 5317 5314 5309 5305 5301 5297 5294 5290 5288 5285 5283
5492 5487 5483 5477 5471 5465 5459 5452 5445 5437 5429 5422 5414 5406 5397 5389 5381 5373 5366 5358 5351 5345 5338 5333 5327 5321 5316 5311 5307 5303 5299 5295 5291 5288 5285 5282 5280 5278
5479 5474 5469 5464 5458 5452 5446 5439 5432 5424 5417 5409 5402 5394 5386 5379 5371 5364 5356 5349 5343 5336 5330 5325 5320 5314 5309 5305 5301 5297 5293 5290 5286 5282 5280 5277 5275 5274
5465 5461 5456 5451 5445 5439 5432 5426 5419 5412 5405 5398 5391 5383 5376 5369 5361 5354 5347 5340 5334 5329 5323 5318 5312 5308 5303 5299 5296 5292 5289 5285 5281 5278 5276 5274 5272 5270
5452 5448 5443 5438 5432 5426 5420 5413 5407 5400 5393 5386 5379 5372 5365 5359 5352 5345 5338 5332 5326 5321 5316 5311 5306 5302 5298 5295 5291 5288 5285 5281 5278 5275 5273 5271 5269 5267
5439 5435 5430 5424 5419 5413 5407 5401 5394 5388 5381 5375 5368 5362 5355 5348 5342 5335 5329 5324 5318 5314 5309 5305 5301 5297 5294 5290 5287 5284 5281 5278 5275 5273 5270 5268 5266 5264